SL-3 R/B

Last updated on Mon Sep 21 2026 00:02:08 GMT+0000 (Coordinated Universal Time)

1 19046U 88032B 26263.55953116 .00002862 00000+0 12958-3 0 9990 2 19046 97.5367 246.6023 0023269 274.2471 85.6105 15.21497046 81723
UTC large
Height (km)
Speed (km/s)
/
Latitude / Longitude
Inclination (degrees)
Orbital Period (minutes)
Azimuth
Elevation
Range (km)
Doppler Factor

Next 0 passes for location: London (51.5072 / 0.1276)

No passes found over London.
SL-3 R/B